Location: ??????????
(42.1626°N, 44.1160°E)
Time: 10:24:47
(UTC+00:00)

SL-8 Rocket - Pass Details

Date: 03 March 2021
Orbit: 957 x 990 km, 82.9° (Epoch: 21 April)

Event Time Altitude Azimuth Distance (km) Brightness Sun altitude
Rises 16:19:52 0° 174° (S) 3,670 6.9 -16.3°
Reaches altitude 10° 16:22:25 10° 170° (S) 2,721 6.2 -16.8°
Maximum altitude 16:28:31 60° 93° (E) 1,111 4.0 -17.9°
Drops below altitude 10° 16:34:36 10° 15° (NNE) 2,716 6.3 -19.0°
Sets 16:37:08 0° 12° (NNE) 3,663 7.0 -19.5°
